Time,TemperatureF,DewpointF,PressureIn,WindDirection,WindDirectionDegrees,WindSpeedMPH,WindSpeedGustMPH,Humidity,HourlyPrecipIn,Conditions,Clouds,dailyrainin,SoftwareType,DateUTC
2013-07-16 00:01:00,55.0,-99.9,29.90,West,266,6.0,8.0,-999,-99.99,,,-99.99,,2013-07-16 07:01:00,
2013-07-16 00:32:00,55.0,-99.9,29.90,West,271,3.0,4.0,-999,-99.99,,,-99.99,,2013-07-16 07:32:00,
2013-07-16 00:43:00,55.0,-99.9,29.90,West,267,6.0,9.0,-999,-99.99,,,-99.99,,2013-07-16 07:43:00,
2013-07-16 00:53:00,55.0,-99.9,29.90,West,266,3.0,6.0,-999,-99.99,,,-99.99,,2013-07-16 07:53:00,
2013-07-16 01:01:00,55.0,-99.9,29.89,West,277,4.0,7.0,-999,-99.99,,,-99.99,,2013-07-16 08:01:00,
2013-07-16 01:32:00,55.0,-99.9,29.89,NW,325,3.0,6.0,-999,-99.99,,,-99.99,,2013-07-16 08:32:00,
2013-07-16 01:43:00,55.0,-99.9,29.89,SSE,156,1.0,6.0,-999,-99.99,,,-99.99,,2013-07-16 08:43:00,
2013-07-16 01:52:00,55.0,-99.9,29.89,West,279,4.0,8.0,-999,-99.99,,,-99.99,,2013-07-16 08:52:00,
2013-07-16 02:01:00,55.0,-99.9,29.89,WSW,257,3.0,6.0,-999,-99.99,,,-99.99,,2013-07-16 09:01:00,
2013-07-16 02:12:00,55.0,-99.9,29.89,West,277,2.0,5.0,-999,-99.99,,,-99.99,,2013-07-16 09:12:00,
2013-07-16 02:32:00,55.0,-99.9,29.90,SE,139,2.0,5.0,-999,-99.99,,,-99.99,,2013-07-16 09:32:00,
2013-07-16 02:42:00,55.0,-99.9,29.89,WNW,288,2.0,8.0,-999,-99.99,,,-99.99,,2013-07-16 09:42:00,
2013-07-16 02:52:00,55.0,-99.9,29.89,WNW,296,3.0,6.0,-999,-99.99,,,-99.99,,2013-07-16 09:52:00,
2013-07-16 03:01:00,55.0,-99.9,29.89,ESE,105,4.0,7.0,-999,-99.99,,,-99.99,,2013-07-16 10:01:00,
2013-07-16 03:32:00,55.0,-99.9,29.89,SE,139,3.0,7.0,-999,-99.99,,,-99.99,,2013-07-16 10:32:00,
2013-07-16 03:43:00,55.0,-99.9,29.89,ESE,118,8.0,12.0,-999,-99.99,,,-99.99,,2013-07-16 10:43:00,
2013-07-16 03:52:00,54.0,-99.9,29.89,NE,37,2.0,9.0,-999,-99.99,,,-99.99,,2013-07-16 10:52:00,
2013-07-16 04:01:00,55.0,-99.9,29.89,SE,125,1.0,7.0,-999,-99.99,,,-99.99,,2013-07-16 11:01:00,
2013-07-16 04:32:00,55.0,-99.9,29.89,SSW,210,4.0,8.0,-999,-99.99,,,-99.99,,2013-07-16 11:32:00,
2013-07-16 04:42:00,55.0,-99.9,29.89,SE,127,4.0,7.0,-999,-99.99,,,-99.99,,2013-07-16 11:42:00,
2013-07-16 04:53:00,55.0,-99.9,29.89,NE,42,4.0,9.0,-999,-99.99,,,-99.99,,2013-07-16 11:53:00,
2013-07-16 05:01:00,54.0,-99.9,29.90,WSW,249,4.0,6.0,-999,-99.99,,,-99.99,,2013-07-16 12:01:00,
2013-07-16 05:43:00,54.0,-99.9,29.90,NNE,12,1.0,4.0,-999,-99.99,,,-99.99,,2013-07-16 12:43:00,
2013-07-16 06:01:00,54.0,-99.9,29.91,West,279,2.0,5.0,-999,-99.99,,,-99.99,,2013-07-16 13:01:00,
2013-07-16 06:32:00,54.0,-99.9,29.92,SW,220,1.0,4.0,-999,-99.99,,,-99.99,,2013-07-16 13:32:00,
2013-07-16 07:02:00,53.0,-99.9,29.93,West,271,5.0,7.0,-999,-99.99,,,-99.99,,2013-07-16 14:02:00,
2013-07-16 07:43:00,53.0,-99.9,29.93,West,271,6.0,8.0,-999,-99.99,,,-99.99,,2013-07-16 14:43:00,
2013-07-16 07:52:00,53.0,-99.9,29.93,WSW,255,3.0,10.0,-999,-99.99,,,-99.99,,2013-07-16 14:52:00,
2013-07-16 08:01:00,54.0,-99.9,29.94,WNW,289,9.0,13.0,-999,-99.99,,,-99.99,,2013-07-16 15:01:00,
2013-07-16 08:43:00,54.0,-99.9,29.96,NW,307,2.0,4.0,-999,-99.99,,,-99.99,,2013-07-16 15:43:00,
2013-07-16 08:53:00,54.0,-99.9,29.96,NW,305,1.0,4.0,-999,-99.99,,,-99.99,,2013-07-16 15:53:00,
2013-07-16 09:01:00,54.0,-99.9,29.96,SW,226,1.0,3.0,-999,-99.99,,,-99.99,,2013-07-16 16:01:00,
2013-07-16 09:11:00,54.0,-99.9,29.97,SSE,147,0.0,4.0,-999,-99.99,,,-99.99,,2013-07-16 16:11:00,
2013-07-16 09:43:00,54.0,-99.9,29.98,SW,214,3.0,6.0,-999,-99.99,,,-99.99,,2013-07-16 16:43:00,
2013-07-16 09:52:00,54.0,-99.9,29.98,SSE,156,4.0,6.0,-999,-99.99,,,-99.99,,2013-07-16 16:52:00,
2013-07-16 10:02:00,54.0,-99.9,29.98,SSE,150,4.0,9.0,-999,-99.99,,,-99.99,,2013-07-16 17:02:00,
2013-07-16 10:43:00,55.0,-99.9,29.99,SSE,163,2.0,6.0,-999,-99.99,,,-99.99,,2013-07-16 17:43:00,
2013-07-16 10:53:00,55.0,-99.9,29.99,SSE,150,5.0,8.0,-999,-99.99,,,-99.99,,2013-07-16 17:53:00,
2013-07-16 11:01:00,55.0,-99.9,30.00,SSE,148,5.0,9.0,-999,-99.99,,,-99.99,,2013-07-16 18:01:00,
2013-07-16 11:22:00,55.0,-99.9,30.00,SE,127,4.0,7.0,-999,-99.99,,,-99.99,,2013-07-16 18:22:00,
2013-07-16 11:43:00,55.0,-99.9,30.01,SE,128,4.0,9.0,-999,-99.99,,,-99.99,,2013-07-16 18:43:00,
2013-07-16 11:53:00,55.0,-99.9,30.01,SE,124,5.0,10.0,-999,-99.99,,,-99.99,,2013-07-16 18:53:00,
2013-07-16 12:01:00,56.0,-99.9,30.01,ESE,110,5.0,9.0,-999,-99.99,,,-99.99,,2013-07-16 19:01:00,
2013-07-16 12:32:00,56.0,-99.9,30.01,ESE,106,6.0,11.0,-999,-99.99,,,-99.99,,2013-07-16 19:32:00,
2013-07-16 12:43:00,56.0,-99.9,30.02,ESE,115,4.0,9.0,-999,-99.99,,,-99.99,,2013-07-16 19:43:00,
2013-07-16 12:52:00,56.0,-99.9,30.02,ESE,118,6.0,9.0,-999,-99.99,,,-99.99,,2013-07-16 19:52:00,
2013-07-16 13:03:00,57.0,-99.9,30.02,SE,144,5.0,12.0,-999,-99.99,,,-99.99,,2013-07-16 20:03:00,
2013-07-16 13:23:00,57.0,-99.9,30.02,SE,145,7.0,13.0,-999,-99.99,,,-99.99,,2013-07-16 20:23:00,
2013-07-16 13:43:00,57.0,-99.9,30.02,East,94,5.0,9.0,-999,-99.99,,,-99.99,,2013-07-16 20:43:00,
2013-07-16 14:02:00,57.0,-99.9,30.02,East,97,5.0,10.0,-999,-99.99,,,-99.99,,2013-07-16 21:02:00,
2013-07-16 14:11:00,57.0,-99.9,30.02,ESE,117,4.0,11.0,-999,-99.99,,,-99.99,,2013-07-16 21:11:00,
2013-07-16 14:22:00,57.0,-99.9,30.03,ESE,103,4.0,9.0,-999,-99.99,,,-99.99,,2013-07-16 21:22:00,
2013-07-16 14:32:00,57.0,-99.9,30.03,ESE,103,4.0,9.0,-999,-99.99,,,-99.99,,2013-07-16 21:32:00,
2013-07-16 14:43:00,56.0,-99.9,30.03,East,93,5.0,9.0,-999,-99.99,,,-99.99,,2013-07-16 21:43:00,
2013-07-16 14:52:00,56.0,-99.9,30.03,East,99,4.0,10.0,-999,-99.99,,,-99.99,,2013-07-16 21:52:00,
2013-07-16 15:01:00,56.0,-99.9,30.03,ESE,105,3.0,10.0,-999,-99.99,,,-99.99,,2013-07-16 22:01:00,
2013-07-16 15:33:00,57.0,-99.9,30.02,SSE,153,4.0,8.0,-999,-99.99,,,-99.99,,2013-07-16 22:33:00,
2013-07-16 16:02:00,57.0,-99.9,30.02,North,354,4.0,5.0,-999,-99.99,,,-99.99,,2013-07-16 23:02:00,
2013-07-16 16:52:00,58.0,-99.9,30.02,WNW,296,4.0,6.0,-999,-99.99,,,-99.99,,2013-07-16 23:52:00,
2013-07-16 17:52:00,58.0,-99.9,30.01,WNW,287,8.0,11.0,-999,-99.99,,,-99.99,,2013-07-17 00:52:00,
2013-07-16 18:01:00,58.0,-99.9,30.01,WNW,288,8.0,11.0,-999,-99.99,,,-99.99,,2013-07-17 01:01:00,
2013-07-16 19:01:00,59.0,-99.9,30.01,WNW,286,8.0,10.0,-999,-99.99,,,-99.99,,2013-07-17 02:01:00,
2013-07-16 19:32:00,58.0,-99.9,30.01,West,275,9.0,11.0,-999,-99.99,,,-99.99,,2013-07-17 02:32:00,
2013-07-16 19:53:00,58.0,-99.9,30.01,WNW,286,9.0,11.0,-999,-99.99,,,-99.99,,2013-07-17 02:53:00,
2013-07-16 20:01:00,58.0,-99.9,30.01,West,281,10.0,12.0,-999,-99.99,,,-99.99,,2013-07-17 03:01:00,
2013-07-16 20:22:00,58.0,-99.9,30.01,West,276,8.0,11.0,-999,-99.99,,,-99.99,,2013-07-17 03:22:00,
2013-07-16 20:43:00,57.0,-99.9,30.02,West,272,9.0,11.0,-999,-99.99,,,-99.99,,2013-07-17 03:43:00,
2013-07-16 21:01:00,57.0,-99.9,30.02,West,278,8.0,11.0,-999,-99.99,,,-99.99,,2013-07-17 04:01:00,
2013-07-16 21:43:00,57.0,-99.9,30.03,West,270,8.0,11.0,-999,-99.99,,,-99.99,,2013-07-17 04:43:00,
2013-07-16 22:02:00,57.0,-99.9,30.04,West,276,9.0,11.0,-999,-99.99,,,-99.99,,2013-07-17 05:02:00,
2013-07-16 23:01:00,57.0,-99.9,30.05,West,276,9.0,11.0,-999,-99.99,,,-99.99,,2013-07-17 06:01:00,
2013-07-16 23:22:00,57.0,-99.9,30.05,West,278,9.0,11.0,-999,-99.99,,,-99.99,,2013-07-17 06:22:00,
2013-07-16 23:52:00,57.0,-99.9,30.06,WNW,285,7.0,9.0,-999,-99.99,,,-99.99,,2013-07-17 06:52:00,